This is the latest recevied weather packets stored in our database for station/object K3BAY-1. If no packets are shown the sender has not sent any weather packets the latest 10 day(s).
| Time | Temp. | Humidity | Pressure | Rain* | Wind** | Luminosity | Snow |
|---|---|---|---|---|---|---|---|
| 1777753644 | 15° C | 49% | 1012.6 hPa | 0 mm | - | 118 W/m² | - |
| 1777753343 | 15.56° C | 41% | 1012.6 hPa | 0 mm | - | 203 W/m² | - |
| 1777753040 | 15.56° C | 42% | 1012.6 hPa | 0 mm | - | 418 W/m² | - |
| 1777752736 | 15.56° C | 42% | 1012.6 hPa | 0 mm | - | 159 W/m² | - |
| 1777752432 | 15° C | 45% | 1012.9 hPa | 0 mm | - | 166 W/m² | - |
| 1777752128 | 15.56° C | 40% | 1012.6 hPa | 0 mm | - | 124 W/m² | - |
| 1777751827 | 15.56° C | 41% | 1012.6 hPa | 0 mm | - | 620 W/m² | - |
| 1777749572 | 14.44° C | 48% | 1012.9 hPa | 0 mm | - | 154 W/m² | - |
| 1777749270 | 14.44° C | 48% | 1012.9 hPa | 0 mm | - | 154 W/m² | - |
| 1777748967 | 14.44° C | 48% | 1012.9 hPa | 0 mm | - | 154 W/m² | - |
| 1777748664 | 15° C | 48% | 1012.9 hPa | 0 mm | - | 196 W/m² | - |
| 1777748360 | 14.44° C | 47% | 1012.9 hPa | 0 mm | - | 502 W/m² | - |
| 1777748056 | 15° C | 46% | 1013.2 hPa | 0 mm | - | 163 W/m² | - |
| 1777747753 | 15.56° C | 46% | 1013.2 hPa | 0 mm | - | 225 W/m² | - |
| 1777747449 | 15.56° C | 45% | 1013.2 hPa | 0 mm | - | 574 W/m² | - |
| 1777747145 | 15° C | 48% | 1013.6 hPa | 0 mm | - | 548 W/m² | - |
| 1777746841 | 15° C | 45% | 1013.2 hPa | 0 mm | - | 663 W/m² | - |
| 1777746537 | 15° C | 48% | 1013.2 hPa | 0 mm | - | 363 W/m² | - |
| 1777746233 | 15° C | 48% | 1013.2 hPa | 0 mm | - | 730 W/m² | - |
| 1777745929 | 15.56° C | 45% | 1012.9 hPa | 0 mm | - | 586 W/m² | - |
| 1777745628 | 16.67° C | 43% | 1013.2 hPa | 0 mm | - | 683 W/m² | - |
| 1777745325 | 16.11° C | 46% | 1013.2 hPa | 0 mm | - | 738 W/m² | - |
| 1777745022 | 15.56° C | 44% | 1012.9 hPa | 0 mm | - | 617 W/m² | - |
| 1777744718 | 15.56° C | 44% | 1013.2 hPa | 0 mm | - | 685 W/m² | - |
| 1777744412 | 16.11° C | 42% | 1013.2 hPa | 0 mm | - | 682 W/m² | - |
* Rain latest hour (hover to see other rain measurements)
** Current wind speed in m/s (hover to see current wind gust speed)